Orbital Elements at Epoch 2459000.5 (2020-May-31.0) TDB
Reference: JPL 12 (heliocentric ecliptic J2000)
Element | Value | Uncertainty (1-sigma) | Units |
e | .1151636245070097 | 5.4193e-08 | |
a | 2.555060901794608 | 2.1864e-08 | au |
q | 2.260810827507792 | 1.4016e-07 | au |
i | 4.827019633204353 | 5.226e-06 | deg |
node | 43.86893861097093 | 9.0578e-05 | deg |
peri | 237.4892769072551 | 9.6819e-05 | deg |
M | 267.0146528322357 | 4.072e-05 | deg |
tp | 2459385.811816136946 (2021-Jun-20.31181614) | 0.00017154 | TDB |
period | 1491.764649316583 4.08 | 1.9148e-05 5.242e-08 | d yr |
n | .2413249302863729 | 3.0976e-09 | deg/d |
Q | 2.849310976081425 | 2.4382e-08 | au |
|
| | Orbit Determination Parameters
Additional Information
|